Location: Falconara Alta
(43.6167°N, 13.4000°E)
Time: 03:45:05
(UTC+00:00)

Cosmos 2228 - Pass Details

Date: 09 April 2020
Orbit: 588 x 619 km, 82.5° (Epoch: 02 June)

Event Time Altitude Azimuth Distance (km) Brightness Sun altitude
Rises 19:05:49 0° 205° (SSW) 2,833 6.4 -14.9°
Reaches altitude 10° 19:08:07 10° 213° (SSW) 1,941 5.7 -15.3°
Maximum altitude 19:12:10 40° 283° (WNW) 907 4.5 -15.9°
Drops below altitude 10° 19:16:17 10° 354° (N) 1,974 6.1 -16.6°
Sets 19:18:38 0° 2° (N) 2,889 6.9 -17.0°
